SCP
0 -0 0 0 0 1 1 1 1 1 1 0 0 0 0 0 0 0 0 0 0 0 0 0 0 0 0 0 0 0 0 0 0 0 0 0 0 0 -0 0 0 0 0
0 0 0 0 0 0 0 0 1 1 1 1 1 1 1 0 0 0 0 0 0 0 0 0 0 0 0 0 0 0 0 0 0 0 0 0 0 0 0 0 0 0 0
0 0 0 0 0 0 0 0 0 1 1 1 1 1 1 1 1 0 0 0 0 0 0 0 0 0 0 0 0 0 0 0 0 0 0 0 0 -0 -0 0 0 0 0
0 0 0 0 0 0 0 0 0 0 0 0 0 1 1 1 1 1 1 1 1 0 0 0 0 0 0 0 0 0 0 0 0 0 0 0 0 -0 -0 0 0 0 0
0 0 0 0 0 0 0 0 0 0 0 0 0 0 0 0 0 0 1 1 1 1 0 0 0 0 0 0 0 0 0 0 0 0 0 0 0 -0 -0 0 0 0 0
0 0 0 0 0 0 0 0 0 0 0 0 0 0 0 0 0 0 0 0 0 0 0 0 0 0 0 0 0 0 0 0 0 0 0 0 0 0 0 0 0 0 0
0 0 0 0 0 0 0 0 0 0 0 0 0 0 0 0 0 0 0 0 0 0 0 0 0 0 0 0 0 0 0 0 0 0 0 0 0 -0 0 -0 0 0 0
0 0 0 0 0 0 0 0 0 0 0 0 0 0 0 0 0 0 0 0 0 0 0 0 0 0 0 0 0 0 0 0 0 0 0 0 0 0 -0 -0 0 0 0
0 0 0 0 0 0 0 0 0 0 0 0 0 0 0 0 0 0 0 0 0 0 0 0 0 0 0 0 0 0 0 0 0 0 0 0 0 0 0 0 0 0 0
0 0 0 0 0 0 0 0 0 0 0 0 0 0 0 0 0 0 0 0 0 0 0 0 0 0 0 0 0 0 0 0 0 0 0 0 0 0 0 0 0 0 0
0 0 0 0 0 0 0 0 0 0 0 0 0 0 0 0 0 0 0 0 0 0 0 0 0 0 0 0 0 0 0 0 0 0 0 0 0 0 0 0 0 0 0
0 0 0 0 0 0 0 0 0 0 0 0 0 0 0 0 0 0 0 0 0 0 0 0 0 0 0 0 0 0 0 0 0 0 0 0 0 0 0 1 0 0 0
0 0 0 0 0 0 0 0 0 0 0 0 0 0 0 0 0 0 0 0 0 0 0 0 0 0 0 0 0 0 0 0 0 0 0 0 0 0 0 1 1 1 0
0 0 0 0 0 0 0 0 0 0 0 0 0 0 0 0 0 0 0 0 0 0 0 0 0 0 0 0 0 0 0 0 0 0 0 0 0 0 0 0 1 1 1
0 0 0 0 0 0 0 0 0 0 0 0 0 0 0 0 0 0 0 0 0 0 0 0 0 0 0 0 0 0 0 0 0 0 0 0 0 0 0 0 0 0 0
0 0 0 0 0 0 0 0 0 0 0 0 0 0 0 0 0 0 0 0 0 0 0 0 0 0 0 0 0 0 0 0 0 0 0 0 0 0 0 0 0 0 0
0 0 0 0 0 0 0 0 0 0 0 0 0 0 0 0 0 0 0 0 0 0 0 0 0 0 0 0 0 0 0 0 0 0 0 0 0 0 0 0 0 0 0
0 0 0 0 0 0 0 0 0 0 0 0 0 0 0 0 0 0 0 0 0 0 0 0 0 0 0 0 0 0 0 0 0 0 0 0 0 0 0 0 0 0 0
0 0 0 0 0 0 0 0 0 0 0 0 0 0 0 0 0 0 0 0 0 0 0 0 0 0 0 0 0 0 0 0 0 0 0 0 0 0 0 0 0 0 0
0 0 0 0 0 0 0 0 0 0 0 0 0 0 0 0 0 0 0 0 0 0 0 0 0 0 0 0 0 0 0 0 0 0 0 0 0 0 0 0 0 0 0
0 0 0 0 0 0 0 0 0 0 0 0 0 0 0 0 0 0 0 0 0 0 0 0 0 0 0 0 0 0 0 0 0 0 0 0 0 0 0 0 0 0 0
0 0 0 0 0 0 0 0 0 0 0 0 0 0 0 0 0 0 0 0 0 0 0 0 0 0 -0 -0 -0 -0 0 0 0 0 0 0 0 0 0 0 0 0 0
0 0 0 0 0 0 0 0 0 0 0 0 0 0 0 0 0 0 0 0 0 0 0 0 0 -0 -0 -0 0 -0 -0 0 0 0 0 0 0 0 0 0 0 0 0
0 0 0 0 0 0 0 0 0 0 0 0 0 0 0 0 0 0 0 0 0 0 0 0 0 -0 -0 0 -0 0 0 -0 -0 0 0 0 0 0 0 0 0 0 0
0 0 0 0 0 0 0 0 0 0 0 0 0 0 0 0 0 0 0 0 0 0 0 0 0 0 0 0 -0 0 0 -0 0 -0 -0 0 0 0 0 0 0 0 0
0 0 0 0 0 0 0 0 0 0 0 0 0 0 0 0 0 0 0 0 0 0 0 0 0 0 0 0 0 0 0 -0 0 -0 -0 0 0 0 0 0 -0 -0 0
Wind_Speed_500mb
28 21 24 21 18 16 13 11 8 7 6 8 8 8 8 7 7 5 4 2 2 1 2 3 5 7 9 8 8 8 6 4 3 4 3 3 5 6 5 6 7 6 4
30 23 22 19 17 14 11 9 7 5 4 4 4 4 4 3 4 5 6 7 7 6 5 3 3 5 7 8 8 10 7 5 3 3 3 0 4 3 2 3 4 5 3
24 19 19 19 17 13 11 8 6 5 5 5 5 6 6 6 6 6 6 7 8 8 9 8 7 7 6 8 9 9 8 3 4 4 2 3 1 2 3 4 5 6 4
26 19 15 18 18 15 11 9 8 7 7 6 7 7 8 8 9 10 11 11 11 13 13 12 12 11 11 9 9 11 12 7 8 9 8 9 14 10 5 3 3 4 4
21 16 19 21 20 17 13 11 10 9 8 9 9 9 9 10 13 14 14 15 15 16 16 16 16 15 14 13 13 11 13 12 11 13 14 13 10 12 10 8 4 4 5
17 17 20 22 21 17 12 10 9 8 9 10 11 12 10 13 16 17 18 19 20 20 19 19 20 19 18 17 16 16 16 18 15 17 18 19 15 15 15 12 11 10 10
16 15 14 16 17 15 13 9 7 7 8 9 10 11 10 13 16 18 21 21 24 25 25 26 26 25 23 22 21 22 21 22 22 20 21 22 23 21 19 21 19 16 14
17 15 16 15 14 12 11 9 9 7 6 6 9 9 10 13 16 19 21 22 24 25 26 29 30 31 30 28 27 28 28 27 28 27 26 26 26 27 26 23 27 23 20
15 14 16 15 13 11 9 8 5 5 5 6 9 12 14 16 19 20 23 26 29 30 29 29 29 29 31 35 35 34 34 32 34 32 32 32 28 31 33 30 26 28 24
21 19 18 16 12 10 9 9 6 5 4 7 11 14 17 20 23 24 26 27 29 31 31 32 32 32 32 32 35 39 39 36 38 41 38 35 34 34 34 35 31 34 31
22 18 15 14 12 11 10 8 6 6 8 12 14 16 17 19 21 23 25 28 32 35 38 38 39 38 38 39 38 39 40 42 43 46 46 42 39 38 37 36 38 38 38
21 19 18 16 14 13 12 10 8 7 8 11 13 14 15 16 17 19 22 24 26 29 33 36 37 39 41 43 44 45 45 43 42 46 49 49 46 41 41 41 39 43 42
20 18 17 18 17 17 15 13 11 8 7 9 11 13 14 16 18 20 20 19 20 23 25 27 29 31 35 39 41 44 46 49 47 46 49 50 51 46 44 42 45 42 44
15 12 13 15 18 20 19 16 13 11 10 10 11 13 14 16 17 18 20 22 24 25 27 27 27 27 27 29 33 36 41 45 47 50 50 50 51 48 48 48 46 44 48
12 10 11 11 13 14 14 14 12 10 10 12 14 16 18 21 24 26 27 28 29 29 28 30 31 30 28 27 27 28 29 35 41 46 49 48 50 52 52 51 52 46 49
15 13 12 13 14 15 13 11 10 9 11 14 17 19 21 21 22 24 26 28 28 30 32 31 29 31 30 29 27 28 29 29 28 33 39 41 44 50 53 57 54 54 53
16 13 12 13 14 12 11 10 8 8 11 15 17 21 24 25 25 24 25 27 30 30 30 32 32 30 29 27 26 26 26 29 26 20 21 25 29 38 47 53 59 54 55
14 11 9 10 9 9 9 10 10 11 12 17 22 26 27 29 30 30 30 29 30 32 33 33 33 33 32 32 30 27 25 21 19 15 16 16 16 19 27 40 50 60 66
13 7 5 7 10 11 12 13 13 14 16 19 22 24 24 25 27 28 29 30 31 32 33 34 35 36 35 32 31 28 23 18 14 9 16 18 14 15 21 22 31 47 58
14 7 7 10 12 13 14 15 15 16 17 20 22 23 24 26 26 27 28 29 30 31 33 33 36 36 38 37 34 30 15 13 4 13 22 15 20 24 24 28 30 30 37
19 10 9 10 14 16 18 17 18 17 17 18 21 25 26 26 27 29 30 30 30 32 34 37 38 41 42 42 40 31 17 9 8 35 16 25 27 33 37 31 29 34 34
18 12 7 7 11 15 18 19 20 16 15 16 20 24 24 25 25 27 29 30 31 32 34 37 40 42 44 44 40 30 19 12 6 20 25 18 37 45 38 37 29 26 31
19 11 9 9 10 13 17 20 20 15 14 16 18 19 22 25 27 28 30 30 31 34 37 39 40 41 40 37 36 25 14 12 49 6 20 41 49 48 46 34 33 32 29
23 21 16 11 8 10 13 14 15 14 14 13 14 15 18 21 24 25 28 30 32 34 33 34 35 35 34 35 30 28 15 15 13 28 48 49 55 54 50 45 38 38 38
25 25 18 12 10 7 9 10 8 7 8 12 14 17 19 21 24 26 28 29 31 31 31 31 31 31 31 30 31 31 26 16 9 19 33 71 61 57 47 47 47 51 42
35 29 20 11 8 8 7 7 6 6 6 9 12 13 15 19 22 23 24 27 28 28 28 29 29 28 28 28 27 26 25 23 30 25 36 63 65 64 52 45 62 59 59
Wind_Direction_500mb
182 167 160 161 157 153 152 155 151 138 119 108 99 98 98 120 134 142 137 147 172 244 306 345 9 358 356 351 344 346 354 28 43 58 56 82 82 76 69 49 33 39 41
183 174 163 167 165 159 155 156 164 165 158 150 141 126 143 162 190 198 202 216 234 239 260 290 323 331 332 330 335 334 337 359 345 356 351 104 120 98 7 32 16 11 34
177 169 170 171 168 170 173 170 173 194 212 223 202 194 204 207 224 245 253 252 253 260 260 265 277 284 297 308 312 312 308 307 255 268 328 157 219 330 330 331 338 339 1
165 170 174 177 173 180 181 181 200 214 222 237 247 235 227 231 240 244 253 261 263 259 257 262 269 276 278 277 286 293 293 279 253 241 249 251 283 263 305 289 321 324 309
158 168 208 197 181 185 185 195 208 220 227 237 244 251 255 261 264 263 261 261 258 258 261 259 259 261 265 272 275 270 274 274 259 251 254 257 260 257 255 268 296 293 288
162 194 205 191 191 194 192 209 221 232 235 247 251 253 265 268 274 278 274 271 273 272 270 270 266 263 264 263 266 273 275 275 262 251 249 259 268 258 261 272 284 277 261
185 188 204 188 194 199 194 192 206 222 236 246 256 264 267 271 276 274 275 275 276 278 276 275 272 269 266 262 259 260 259 264 267 260 253 250 258 266 272 263 269 268 262
197 219 191 186 192 198 201 199 210 227 246 259 268 275 275 274 275 278 280 282 283 283 285 281 278 275 270 264 258 254 253 254 258 260 258 253 249 254 266 277 258 258 263
203 205 188 192 200 216 226 231 247 280 295 300 297 291 286 282 281 283 287 288 289 290 290 286 283 281 275 270 265 260 256 255 257 257 256 258 254 252 252 265 261 251 257
206 204 202 208 211 217 232 231 228 216 250 284 291 295 294 294 295 296 295 295 296 297 295 292 290 284 279 275 271 266 263 260 261 260 258 258 259 259 255 257 261 249 254
203 204 207 218 228 241 255 275 263 274 297 299 299 297 290 289 288 291 294 296 298 298 298 296 293 287 282 278 275 272 268 261 253 256 260 259 256 256 259 256 255 253 249
191 201 209 214 229 245 260 270 276 281 284 287 291 295 295 294 293 295 296 297 297 297 298 299 298 295 289 283 277 274 272 269 264 262 259 258 256 253 252 255 253 254 255
196 206 223 235 243 252 258 260 265 272 284 296 304 307 313 322 324 321 321 319 314 311 307 304 301 297 293 291 287 282 275 272 268 264 264 262 256 251 250 246 249 250 252
206 219 228 232 234 237 243 254 269 289 303 311 313 319 322 321 324 324 326 325 328 327 324 321 319 318 314 305 297 291 286 280 273 267 262 261 266 258 247 245 247 250 245
205 229 234 231 235 239 240 242 259 282 304 328 338 339 338 334 330 328 328 330 331 331 329 328 327 326 323 322 318 310 298 287 283 279 273 266 260 257 252 249 248 246 246
211 229 236 237 238 237 242 251 268 296 322 330 334 337 336 331 331 334 335 331 329 327 328 328 330 329 327 326 322 317 311 305 295 285 280 276 266 259 259 250 248 250 245
211 228 229 228 224 228 239 256 277 302 319 322 326 331 332 332 331 332 332 333 333 332 330 326 325 323 322 322 323 318 312 308 306 304 295 287 276 265 258 256 252 249 250
217 228 236 241 246 250 253 260 277 293 309 324 332 334 333 332 334 336 336 335 334 332 332 329 326 325 325 325 328 328 321 311 305 321 345 330 304 280 271 263 259 252 249
213 235 257 250 247 242 243 251 268 292 310 317 322 325 327 329 331 332 333 334 335 334 332 334 335 334 333 332 334 337 323 310 305 316 342 355 346 323 309 293 274 262 256
209 220 229 232 239 245 250 256 267 286 306 315 321 324 327 332 337 338 336 336 336 336 337 340 342 344 343 341 340 341 329 316 269 350 335 355 357 352 337 321 306 287 270
200 199 211 231 243 248 254 260 268 279 295 308 319 325 330 334 338 343 344 345 344 345 347 345 345 345 343 343 341 349 360 339 213 348 343 341 341 348 344 339 328 312 294
197 196 217 234 246 259 265 265 260 267 278 296 314 323 329 333 338 347 349 350 350 351 350 349 349 351 352 353 359 350 342 324 222 313 345 346 350 344 348 351 341 326 312
184 206 225 228 235 244 247 247 243 254 275 294 309 320 329 339 346 349 350 352 352 352 352 353 354 356 358 3 9 24 360 335 329 299 330 340 348 351 356 1 354 340 326
185 208 217 227 235 240 240 239 241 253 278 289 306 323 331 339 346 353 354 350 352 355 353 355 357 358 358 3 10 25 20 351 344 320 331 342 350 357 4 354 354 347 333
198 210 212 224 210 218 223 231 247 268 281 301 332 350 346 349 348 353 352 354 357 358 359 359 1 4 4 6 12 11 19 43 316 333 318 337 349 360 4 2 355 348 342
203 205 206 202 210 202 219 225 245 269 290 321 335 345 349 352 354 359 2 359 2 3 3 4 3 4 6 6 13 15 19 5 351 2 339 344 344 352 5 2 357 352 348
Wind_Speed_850mb
28 21 24 21 18 16 13 11 8 7 6 8 8 8 8 7 7 5 4 2 2 1 2 3 5 7 9 8 8 8 6 4 3 4 3 3 5 6 5 6 7 6 4
30 23 22 19 17 14 11 9 7 5 4 4 4 4 4 3 4 5 6 7 7 6 5 3 3 5 7 8 8 10 7 5 3 3 3 0 4 3 2 3 4 5 3
24 19 19 19 17 13 11 8 6 5 5 5 5 6 6 6 6 6 6 7 8 8 9 8 7 7 6 8 9 9 8 3 4 4 2 3 1 2 3 4 5 6 4
26 19 15 18 18 15 11 9 8 7 7 6 7 7 8 8 9 10 11 11 11 13 13 12 12 11 11 9 9 11 12 7 8 9 8 9 14 10 5 3 3 4 4
21 16 19 21 20 17 13 11 10 9 8 9 9 9 9 10 13 14 14 15 15 16 16 16 16 15 14 13 13 11 13 12 11 13 14 13 10 12 10 8 4 4 5
17 17 20 22 21 17 12 10 9 8 9 10 11 12 10 13 16 17 18 19 20 20 19 19 20 19 18 17 16 16 16 18 15 17 18 19 15 15 15 12 11 10 10
16 15 14 16 17 15 13 9 7 7 8 9 10 11 10 13 16 18 21 21 24 25 25 26 26 25 23 22 21 22 21 22 22 20 21 22 23 21 19 21 19 16 14
17 15 16 15 14 12 11 9 9 7 6 6 9 9 10 13 16 19 21 22 24 25 26 29 30 31 30 28 27 28 28 27 28 27 26 26 26 27 26 23 27 23 20
15 14 16 15 13 11 9 8 5 5 5 6 9 12 14 16 19 20 23 26 29 30 29 29 29 29 31 35 35 34 34 32 34 32 32 32 28 31 33 30 26 28 24
21 19 18 16 12 10 9 9 6 5 4 7 11 14 17 20 23 24 26 27 29 31 31 32 32 32 32 32 35 39 39 36 38 41 38 35 34 34 34 35 31 34 31
22 18 15 14 12 11 10 8 6 6 8 12 14 16 17 19 21 23 25 28 32 35 38 38 39 38 38 39 38 39 40 42 43 46 46 42 39 38 37 36 38 38 38
21 19 18 16 14 13 12 10 8 7 8 11 13 14 15 16 17 19 22 24 26 29 33 36 37 39 41 43 44 45 45 43 42 46 49 49 46 41 41 41 39 43 42
20 18 17 18 17 17 15 13 11 8 7 9 11 13 14 16 18 20 20 19 20 23 25 27 29 31 35 39 41 44 46 49 47 46 49 50 51 46 44 42 45 42 44
15 12 13 15 18 20 19 16 13 11 10 10 11 13 14 16 17 18 20 22 24 25 27 27 27 27 27 29 33 36 41 45 47 50 50 50 51 48 48 48 46 44 48
12 10 11 11 13 14 14 14 12 10 10 12 14 16 18 21 24 26 27 28 29 29 28 30 31 30 28 27 27 28 29 35 41 46 49 48 50 52 52 51 52 46 49
15 13 12 13 14 15 13 11 10 9 11 14 17 19 21 21 22 24 26 28 28 30 32 31 29 31 30 29 27 28 29 29 28 33 39 41 44 50 53 57 54 54 53
16 13 12 13 14 12 11 10 8 8 11 15 17 21 24 25 25 24 25 27 30 30 30 32 32 30 29 27 26 26 26 29 26 20 21 25 29 38 47 53 59 54 55
14 11 9 10 9 9 9 10 10 11 12 17 22 26 27 29 30 30 30 29 30 32 33 33 33 33 32 32 30 27 25 21 19 15 16 16 16 19 27 40 50 60 66
13 7 5 7 10 11 12 13 13 14 16 19 22 24 24 25 27 28 29 30 31 32 33 34 35 36 35 32 31 28 23 18 14 9 16 18 14 15 21 22 31 47 58
14 7 7 10 12 13 14 15 15 16 17 20 22 23 24 26 26 27 28 29 30 31 33 33 36 36 38 37 34 30 15 13 4 13 22 15 20 24 24 28 30 30 37
19 10 9 10 14 16 18 17 18 17 17 18 21 25 26 26 27 29 30 30 30 32 34 37 38 41 42 42 40 31 17 9 8 35 16 25 27 33 37 31 29 34 34
18 12 7 7 11 15 18 19 20 16 15 16 20 24 24 25 25 27 29 30 31 32 34 37 40 42 44 44 40 30 19 12 6 20 25 18 37 45 38 37 29 26 31
19 11 9 9 10 13 17 20 20 15 14 16 18 19 22 25 27 28 30 30 31 34 37 39 40 41 40 37 36 25 14 12 49 6 20 41 49 48 46 34 33 32 29
23 21 16 11 8 10 13 14 15 14 14 13 14 15 18 21 24 25 28 30 32 34 33 34 35 35 34 35 30 28 15 15 13 28 48 49 55 54 50 45 38 38 38
25 25 18 12 10 7 9 10 8 7 8 12 14 17 19 21 24 26 28 29 31 31 31 31 31 31 31 30 31 31 26 16 9 19 33 71 61 57 47 47 47 51 42
35 29 20 11 8 8 7 7 6 6 6 9 12 13 15 19 22 23 24 27 28 28 28 29 29 28 28 28 27 26 25 23 30 25 36 63 65 64 52 45 62 59 59
Wind_Direction_850mb
182 167 160 161 157 153 152 155 151 138 119 108 99 98 98 120 134 142 137 147 172 244 306 345 9 358 356 351 344 346 354 28 43 58 56 82 82 76 69 49 33 39 41
183 174 163 167 165 159 155 156 164 165 158 150 141 126 143 162 190 198 202 216 234 239 260 290 323 331 332 330 335 334 337 359 345 356 351 104 120 98 7 32 16 11 34
177 169 170 171 168 170 173 170 173 194 212 223 202 194 204 207 224 245 253 252 253 260 260 265 277 284 297 308 312 312 308 307 255 268 328 157 219 330 330 331 338 339 1
165 170 174 177 173 180 181 181 200 214 222 237 247 235 227 231 240 244 253 261 263 259 257 262 269 276 278 277 286 293 293 279 253 241 249 251 283 263 305 289 321 324 309
158 168 208 197 181 185 185 195 208 220 227 237 244 251 255 261 264 263 261 261 258 258 261 259 259 261 265 272 275 270 274 274 259 251 254 257 260 257 255 268 296 293 288
162 194 205 191 191 194 192 209 221 232 235 247 251 253 265 268 274 278 274 271 273 272 270 270 266 263 264 263 266 273 275 275 262 251 249 259 268 258 261 272 284 277 261
185 188 204 188 194 199 194 192 206 222 236 246 256 264 267 271 276 274 275 275 276 278 276 275 272 269 266 262 259 260 259 264 267 260 253 250 258 266 272 263 269 268 262
197 219 191 186 192 198 201 199 210 227 246 259 268 275 275 274 275 278 280 282 283 283 285 281 278 275 270 264 258 254 253 254 258 260 258 253 249 254 266 277 258 258 263
203 205 188 192 200 216 226 231 247 280 295 300 297 291 286 282 281 283 287 288 289 290 290 286 283 281 275 270 265 260 256 255 257 257 256 258 254 252 252 265 261 251 257
206 204 202 208 211 217 232 231 228 216 250 284 291 295 294 294 295 296 295 295 296 297 295 292 290 284 279 275 271 266 263 260 261 260 258 258 259 259 255 257 261 249 254
203 204 207 218 228 241 255 275 263 274 297 299 299 297 290 289 288 291 294 296 298 298 298 296 293 287 282 278 275 272 268 261 253 256 260 259 256 256 259 256 255 253 249
191 201 209 214 229 245 260 270 276 281 284 287 291 295 295 294 293 295 296 297 297 297 298 299 298 295 289 283 277 274 272 269 264 262 259 258 256 253 252 255 253 254 255
196 206 223 235 243 252 258 260 265 272 284 296 304 307 313 322 324 321 321 319 314 311 307 304 301 297 293 291 287 282 275 272 268 264 264 262 256 251 250 246 249 250 252
206 219 228 232 234 237 243 254 269 289 303 311 313 319 322 321 324 324 326 325 328 327 324 321 319 318 314 305 297 291 286 280 273 267 262 261 266 258 247 245 247 250 245
205 229 234 231 235 239 240 242 259 282 304 328 338 339 338 334 330 328 328 330 331 331 329 328 327 326 323 322 318 310 298 287 283 279 273 266 260 257 252 249 248 246 246
211 229 236 237 238 237 242 251 268 296 322 330 334 337 336 331 331 334 335 331 329 327 328 328 330 329 327 326 322 317 311 305 295 285 280 276 266 259 259 250 248 250 245
211 228 229 228 224 228 239 256 277 302 319 322 326 331 332 332 331 332 332 333 333 332 330 326 325 323 322 322 323 318 312 308 306 304 295 287 276 265 258 256 252 249 250
217 228 236 241 246 250 253 260 277 293 309 324 332 334 333 332 334 336 336 335 334 332 332 329 326 325 325 325 328 328 321 311 305 321 345 330 304 280 271 263 259 252 249
213 235 257 250 247 242 243 251 268 292 310 317 322 325 327 329 331 332 333 334 335 334 332 334 335 334 333 332 334 337 323 310 305 316 342 355 346 323 309 293 274 262 256
209 220 229 232 239 245 250 256 267 286 306 315 321 324 327 332 337 338 336 336 336 336 337 340 342 344 343 341 340 341 329 316 269 350 335 355 357 352 337 321 306 287 270
200 199 211 231 243 248 254 260 268 279 295 308 319 325 330 334 338 343 344 345 344 345 347 345 345 345 343 343 341 349 360 339 213 348 343 341 341 348 344 339 328 312 294
197 196 217 234 246 259 265 265 260 267 278 296 314 323 329 333 338 347 349 350 350 351 350 349 349 351 352 353 359 350 342 324 222 313 345 346 350 344 348 351 341 326 312
184 206 225 228 235 244 247 247 243 254 275 294 309 320 329 339 346 349 350 352 352 352 352 353 354 356 358 3 9 24 360 335 329 299 330 340 348 351 356 1 354 340 326
185 208 217 227 235 240 240 239 241 253 278 289 306 323 331 339 346 353 354 350 352 355 353 355 357 358 358 3 10 25 20 351 344 320 331 342 350 357 4 354 354 347 333
198 210 212 224 210 218 223 231 247 268 281 301 332 350 346 349 348 353 352 354 357 358 359 359 1 4 4 6 12 11 19 43 316 333 318 337 349 360 4 2 355 348 342
203 205 206 202 210 202 219 225 245 269 290 321 335 345 349 352 354 359 2 359 2 3 3 4 3 4 6 6 13 15 19 5 351 2 339 344 344 352 5 2 357 352 348